Overview Statistics Trail Chart Weather Telemetry Raw packets
 

This is the latest recevied weather packets stored in our database for station/object SP5MRF. If no packets are shown the sender has not sent any weather packets the latest 10 day(s).

<< 4 5 6 7 8 9 10 >>
Time Temp. Humidity Pressure Rain* Wind** Luminosity Snow
1788599085 18.89° C 67% 1007.3 hPa 0 mm - - -
1788598605 18.33° C 68% 1007.3 hPa 0 mm - - -
1788598126 18.33° C 67% 1007.3 hPa 0 mm - - -
1788597645 18.33° C 68% 1007.3 hPa 0 mm - - -
1788597165 18.89° C 68% 1007.2 hPa 0 mm - - -
1788596205 18.33° C 69% 1007.3 hPa 0 mm - - -
1788595725 18.33° C 70% 1007.3 hPa 0 mm - - -
1788595245 17.78° C 71% 1007.3 hPa 0 mm - - -
1788594766 17.78° C 72% 1007.2 hPa 0 mm - - -
1788594286 17.78° C 73% 1007.1 hPa 0 mm - - -
1788593805 17.22° C 73% 1006.9 hPa 0 mm - - -
1788593325 17.22° C 73% 1007 hPa 0 mm - - -
1788592365 17.22° C 74% 1006.9 hPa 0 mm - - -
1788591885 17.22° C 75% 1006.7 hPa 0 mm - - -
1788591405 16.67° C 75% 1006.5 hPa 0 mm - - -
1788590445 16.67° C 75% 1006.1 hPa 0 mm - - -
1788589966 16.67° C 75% 1006.1 hPa 0 mm - - -
1788589485 16.67° C 76% 1006.1 hPa 0 mm - - -
1788589005 16.11° C 77% 1006 hPa 0 mm - - -
1788588525 16.11° C 77% 1005.8 hPa 0 mm - - -
1788587565 15.56° C 76% 1005.8 hPa 0 mm - - -
1788587085 15.56° C 77% 1005.7 hPa 0 mm - - -
1788586605 15.56° C 77% 1005.5 hPa 0 mm - - -
1788586125 15.56° C 77% 1005.7 hPa 0 mm - - -
1788585645 15° C 77% 1005.6 hPa 0 mm - - -

* Rain latest hour (hover to see other rain measurements)
** Current wind speed in m/s (hover to see current wind gust speed)